PWSweather.com
Personal Weather Stations
Station Observations
AZALEAPK1
San Diego, CA 92105

San Diego, CA 92105

Lat: 32.736, Lon: -117.108

Elevation: 302

Station Type: LaCrosse WS-2813U-IT

High Low Average
Temperature 74.3°F23.5°C 61.2°F16.2°C 67.2°F19.6°C
Dew Point -- -- --
Winds Calm Calm Calm Calm Calm Calm
Wind Gusts -- -- --
Humidity - - -
Pressure 30.03 in1016.9 mb 29.98 in1015.2 mb -
Precipitation 0.00 in0.0 mm - -
Hour Temp Dew Point Humidity Winds Wind Gusts Pressure Precip Precip Rate Daily Precip Total
12:01 AM 61.9°F16.6°C -- - Calm Calm -- 30.02 in1016.6 mb 0.00 in0.0 mm 0.00 in0.0 mm 0.00 in0.0 mm
12:06 AM 61.7°F16.5°C -- - Calm Calm -- 30.02 in1016.6 mb 0.00 in0.0 mm 0.00 in0.0 mm 0.00 in0.0 mm
12:11 AM 61.7°F16.5°C -- - Calm Calm -- 30.01 in1016.3 mb 0.00 in0.0 mm 0.00 in0.0 mm 0.00 in0.0 mm
12:16 AM 61.7°F16.5°C -- - Calm Calm -- 30.01 in1016.3 mb 0.00 in0.0 mm 0.00 in0.0 mm 0.00 in0.0 mm
12:21 AM 61.6°F16.4°C -- - Calm Calm -- 30.01 in1016.3 mb 0.00 in0.0 mm 0.00 in0.0 mm 0.00 in0.0 mm
12:26 AM 61.6°F16.4°C -- - Calm Calm -- 30.01 in1016.3 mb 0.00 in0.0 mm 0.00 in0.0 mm 0.00 in0.0 mm
12:31 AM 61.6°F16.4°C -- - Calm Calm -- 30.01 in1016.3 mb 0.00 in0.0 mm 0.00 in0.0 mm 0.00 in0.0 mm
12:36 AM 61.6°F16.4°C -- - Calm Calm -- 30.01 in1016.3 mb 0.00 in0.0 mm 0.00 in0.0 mm 0.00 in0.0 mm
12:41 AM 61.6°F16.4°C -- - Calm Calm -- 30.01 in1016.3 mb 0.00 in0.0 mm 0.00 in0.0 mm 0.00 in0.0 mm
12:46 AM 61.6°F16.4°C -- - Calm Calm -- 30.01 in1016.3 mb 0.00 in0.0 mm 0.00 in0.0 mm 0.00 in0.0 mm
12:51 AM 61.6°F16.4°C -- - Calm Calm -- 30.01 in1016.3 mb 0.00 in0.0 mm 0.00 in0.0 mm 0.00 in0.0 mm
12:57 AM 61.4°F16.3°C -- - Calm Calm -- 30.01 in1016.3 mb 0.00 in0.0 mm 0.00 in0.0 mm 0.00 in0.0 mm
01:02 AM 61.4°F16.3°C -- - Calm Calm -- 30.00 in1015.9 mb 0.00 in0.0 mm 0.00 in0.0 mm 0.00 in0.0 mm
01:07 AM 61.4°F16.3°C -- - Calm Calm -- 30.01 in1016.3 mb 0.00 in0.0 mm 0.00 in0.0 mm 0.00 in0.0 mm
01:13 AM 61.2°F16.2°C -- - Calm Calm -- 30.01 in1016.3 mb 0.00 in0.0 mm 0.00 in0.0 mm 0.00 in0.0 mm
01:18 AM 61.2°F16.2°C -- - Calm Calm -- 30.00 in1015.9 mb 0.00 in0.0 mm 0.00 in0.0 mm 0.00 in0.0 mm
01:23 AM 61.2°F16.2°C -- - Calm Calm -- 30.00 in1015.9 mb 0.00 in0.0 mm 0.00 in0.0 mm 0.00 in0.0 mm
01:30 AM 61.4°F16.3°C -- - Calm Calm -- 30.00 in1015.9 mb 0.00 in0.0 mm 0.00 in0.0 mm 0.00 in0.0 mm
01:35 AM 61.4°F16.3°C -- - Calm Calm -- 30.00 in1015.9 mb 0.00 in0.0 mm 0.00 in0.0 mm 0.00 in0.0 mm
01:40 AM 61.4°F16.3°C -- - Calm Calm -- 30.00 in1015.9 mb 0.00 in0.0 mm 0.00 in0.0 mm 0.00 in0.0 mm
01:46 AM 61.4°F16.3°C -- - Calm Calm -- 30.00 in1015.9 mb 0.00 in0.0 mm 0.00 in0.0 mm 0.00 in0.0 mm
01:51 AM 61.6°F16.4°C -- - Calm Calm -- 29.99 in1015.6 mb 0.00 in0.0 mm 0.00 in0.0 mm 0.00 in0.0 mm
01:56 AM 61.6°F16.4°C -- - Calm Calm -- 29.99 in1015.6 mb 0.00 in0.0 mm 0.00 in0.0 mm 0.00 in0.0 mm
02:01 AM 61.6°F16.4°C -- - Calm Calm -- 29.99 in1015.6 mb 0.00 in0.0 mm 0.00 in0.0 mm 0.00 in0.0 mm
02:07 AM 61.6°F16.4°C -- - Calm Calm -- 29.99 in1015.6 mb 0.00 in0.0 mm 0.00 in0.0 mm 0.00 in0.0 mm
02:12 AM 61.6°F16.4°C -- - Calm Calm -- 29.99 in1015.6 mb 0.00 in0.0 mm 0.00 in0.0 mm 0.00 in0.0 mm
02:17 AM 61.6°F16.4°C -- - Calm Calm -- 29.99 in1015.6 mb 0.00 in0.0 mm 0.00 in0.0 mm 0.00 in0.0 mm
02:23 AM 61.6°F16.4°C -- - Calm Calm -- 29.99 in1015.6 mb 0.00 in0.0 mm 0.00 in0.0 mm 0.00 in0.0 mm
02:29 AM 61.6°F16.4°C -- - Calm Calm -- 29.99 in1015.6 mb 0.00 in0.0 mm 0.00 in0.0 mm 0.00 in0.0 mm
02:34 AM 61.6°F16.4°C -- - Calm Calm -- 29.99 in1015.6 mb 0.00 in0.0 mm 0.00 in0.0 mm 0.00 in0.0 mm
02:39 AM 61.7°F16.5°C -- - Calm Calm -- 29.99 in1015.6 mb 0.00 in0.0 mm 0.00 in0.0 mm 0.00 in0.0 mm
02:44 AM 61.7°F16.5°C -- - Calm Calm -- 29.99 in1015.6 mb 0.00 in0.0 mm 0.00 in0.0 mm 0.00 in0.0 mm
02:49 AM 61.7°F16.5°C -- - Calm Calm -- 29.99 in1015.6 mb 0.00 in0.0 mm 0.00 in0.0 mm 0.00 in0.0 mm
02:54 AM 61.7°F16.5°C -- - Calm Calm -- 29.99 in1015.6 mb 0.00 in0.0 mm 0.00 in0.0 mm 0.00 in0.0 mm
02:59 AM 61.7°F16.5°C -- - Calm Calm -- 29.99 in1015.6 mb 0.00 in0.0 mm 0.00 in0.0 mm 0.00 in0.0 mm
03:04 AM 61.7°F16.5°C -- - Calm Calm -- 29.98 in1015.2 mb 0.00 in0.0 mm 0.00 in0.0 mm 0.00 in0.0 mm
03:09 AM 61.7°F16.5°C -- - Calm Calm -- 29.99 in1015.6 mb 0.00 in0.0 mm 0.00 in0.0 mm 0.00 in0.0 mm
03:15 AM 61.7°F16.5°C -- - Calm Calm -- 29.99 in1015.6 mb 0.00 in0.0 mm 0.00 in0.0 mm 0.00 in0.0 mm
03:20 AM 61.7°F16.5°C -- - Calm Calm -- 29.99 in1015.6 mb 0.00 in0.0 mm 0.00 in0.0 mm 0.00 in0.0 mm
03:25 AM 61.9°F16.6°C -- - Calm Calm -- 29.99 in1015.6 mb 0.00 in0.0 mm 0.00 in0.0 mm 0.00 in0.0 mm
03:30 AM 61.9°F16.6°C -- - Calm Calm -- 29.99 in1015.6 mb 0.00 in0.0 mm 0.00 in0.0 mm 0.00 in0.0 mm
03:37 AM 61.9°F16.6°C -- - Calm Calm -- 29.99 in1015.6 mb 0.00 in0.0 mm 0.00 in0.0 mm 0.00 in0.0 mm
03:42 AM 61.9°F16.6°C -- - Calm Calm -- 29.99 in1015.6 mb 0.00 in0.0 mm 0.00 in0.0 mm 0.00 in0.0 mm
03:47 AM 62.1°F16.7°C -- - Calm Calm -- 29.99 in1015.6 mb 0.00 in0.0 mm 0.00 in0.0 mm 0.00 in0.0 mm
03:52 AM 62.1°F16.7°C -- - Calm Calm -- 29.99 in1015.6 mb 0.00 in0.0 mm 0.00 in0.0 mm 0.00 in0.0 mm
03:57 AM 62.1°F16.7°C -- - Calm Calm -- 29.99 in1015.6 mb 0.00 in0.0 mm 0.00 in0.0 mm 0.00 in0.0 mm
04:02 AM 62.3°F16.8°C -- - Calm Calm -- 29.99 in1015.6 mb 0.00 in0.0 mm 0.00 in0.0 mm 0.00 in0.0 mm
04:08 AM 62.3°F16.8°C -- - Calm Calm -- 30.00 in1015.9 mb 0.00 in0.0 mm 0.00 in0.0 mm 0.00 in0.0 mm
04:14 AM 62.3°F16.8°C -- - Calm Calm -- 30.00 in1015.9 mb 0.00 in0.0 mm 0.00 in0.0 mm 0.00 in0.0 mm
04:20 AM 62.3°F16.8°C -- - Calm Calm -- 30.00 in1015.9 mb 0.00 in0.0 mm 0.00 in0.0 mm 0.00 in0.0 mm
04:25 AM 62.3°F16.8°C -- - Calm Calm -- 30.00 in1015.9 mb 0.00 in0.0 mm 0.00 in0.0 mm 0.00 in0.0 mm
04:32 AM 62.5°F16.9°C -- - Calm Calm -- 30.00 in1015.9 mb 0.00 in0.0 mm 0.00 in0.0 mm 0.00 in0.0 mm
04:37 AM 62.5°F16.9°C -- - Calm Calm -- 30.00 in1015.9 mb 0.00 in0.0 mm 0.00 in0.0 mm 0.00 in0.0 mm
04:43 AM 62.6°F17.0°C -- - Calm Calm -- 30.00 in1015.9 mb 0.00 in0.0 mm 0.00 in0.0 mm 0.00 in0.0 mm
04:48 AM 62.6°F17.0°C -- - Calm Calm -- 30.00 in1015.9 mb 0.00 in0.0 mm 0.00 in0.0 mm 0.00 in0.0 mm
04:53 AM 62.6°F17.0°C -- - Calm Calm -- 30.00 in1015.9 mb 0.00 in0.0 mm 0.00 in0.0 mm 0.00 in0.0 mm
04:58 AM 62.6°F17.0°C -- - Calm Calm -- 30.00 in1015.9 mb 0.00 in0.0 mm 0.00 in0.0 mm 0.00 in0.0 mm
05:03 AM 62.6°F17.0°C -- - Calm Calm -- 30.00 in1015.9 mb 0.00 in0.0 mm 0.00 in0.0 mm 0.00 in0.0 mm
05:08 AM 62.6°F17.0°C -- - Calm Calm -- 30.01 in1016.3 mb 0.00 in0.0 mm 0.00 in0.0 mm 0.00 in0.0 mm
05:13 AM 62.6°F17.0°C -- - Calm Calm -- 30.00 in1015.9 mb 0.00 in0.0 mm 0.00 in0.0 mm 0.00 in0.0 mm
05:18 AM 62.6°F17.0°C -- - Calm Calm -- 30.00 in1015.9 mb 0.00 in0.0 mm 0.00 in0.0 mm 0.00 in0.0 mm
05:24 AM 62.6°F17.0°C -- - Calm Calm -- 30.00 in1015.9 mb 0.00 in0.0 mm 0.00 in0.0 mm 0.00 in0.0 mm
05:29 AM 62.8°F17.1°C -- - Calm Calm -- 30.00 in1015.9 mb 0.00 in0.0 mm 0.00 in0.0 mm 0.00 in0.0 mm
05:34 AM 62.8°F17.1°C -- - Calm Calm -- 30.00 in1015.9 mb 0.00 in0.0 mm 0.00 in0.0 mm 0.00 in0.0 mm
05:39 AM 62.8°F17.1°C -- - Calm Calm -- 30.01 in1016.3 mb 0.00 in0.0 mm 0.00 in0.0 mm 0.00 in0.0 mm
05:45 AM 62.8°F17.1°C -- - Calm Calm -- 30.01 in1016.3 mb 0.00 in0.0 mm 0.00 in0.0 mm 0.00 in0.0 mm
05:50 AM 62.8°F17.1°C -- - Calm Calm -- 30.01 in1016.3 mb 0.00 in0.0 mm 0.00 in0.0 mm 0.00 in0.0 mm
05:55 AM 62.8°F17.1°C -- - Calm Calm -- 30.01 in1016.3 mb 0.00 in0.0 mm 0.00 in0.0 mm 0.00 in0.0 mm
06:00 AM 62.8°F17.1°C -- - Calm Calm -- 30.01 in1016.3 mb 0.00 in0.0 mm 0.00 in0.0 mm 0.00 in0.0 mm
06:05 AM 62.8°F17.1°C -- - Calm Calm -- 30.01 in1016.3 mb 0.00 in0.0 mm 0.00 in0.0 mm 0.00 in0.0 mm
06:10 AM 63.0°F17.2°C -- - Calm Calm -- 30.01 in1016.3 mb 0.00 in0.0 mm 0.00 in0.0 mm 0.00 in0.0 mm
06:16 AM 63.0°F17.2°C -- - Calm Calm -- 30.01 in1016.3 mb 0.00 in0.0 mm 0.00 in0.0 mm 0.00 in0.0 mm
06:21 AM 63.0°F17.2°C -- - Calm Calm -- 30.01 in1016.3 mb 0.00 in0.0 mm 0.00 in0.0 mm 0.00 in0.0 mm
06:26 AM 63.0°F17.2°C -- - Calm Calm -- 30.01 in1016.3 mb 0.00 in0.0 mm 0.00 in0.0 mm 0.00 in0.0 mm
06:32 AM 63.2°F17.3°C -- - Calm Calm -- 30.01 in1016.3 mb 0.00 in0.0 mm 0.00 in0.0 mm 0.00 in0.0 mm
06:37 AM 63.4°F17.4°C -- - Calm Calm -- 30.01 in1016.3 mb 0.00 in0.0 mm 0.00 in0.0 mm 0.00 in0.0 mm
06:42 AM 63.4°F17.4°C -- - Calm Calm -- 30.01 in1016.3 mb 0.00 in0.0 mm 0.00 in0.0 mm 0.00 in0.0 mm
06:48 AM 63.4°F17.4°C -- - Calm Calm -- 30.02 in1016.6 mb 0.00 in0.0 mm 0.00 in0.0 mm 0.00 in0.0 mm
06:54 AM 63.4°F17.4°C -- - Calm Calm -- 30.01 in1016.3 mb 0.00 in0.0 mm 0.00 in0.0 mm 0.00 in0.0 mm
07:00 AM 63.5°F17.5°C -- - Calm Calm -- 30.01 in1016.3 mb 0.00 in0.0 mm 0.00 in0.0 mm 0.00 in0.0 mm
07:06 AM 63.7°F17.6°C -- - Calm Calm -- 30.01 in1016.3 mb 0.00 in0.0 mm 0.00 in0.0 mm 0.00 in0.0 mm
07:11 AM 63.7°F17.6°C -- - Calm Calm -- 30.02 in1016.6 mb 0.00 in0.0 mm 0.00 in0.0 mm 0.00 in0.0 mm
07:17 AM 63.9°F17.7°C -- - Calm Calm -- 30.01 in1016.3 mb 0.00 in0.0 mm 0.00 in0.0 mm 0.00 in0.0 mm
07:23 AM 64.1°F17.8°C -- - Calm Calm -- 30.02 in1016.6 mb 0.00 in0.0 mm 0.00 in0.0 mm 0.00 in0.0 mm
07:28 AM 64.3°F17.9°C -- - Calm Calm -- 30.02 in1016.6 mb 0.00 in0.0 mm 0.00 in0.0 mm 0.00 in0.0 mm
07:34 AM 64.3°F17.9°C -- - Calm Calm -- 30.02 in1016.6 mb 0.00 in0.0 mm 0.00 in0.0 mm 0.00 in0.0 mm
07:38 AM 64.4°F18.0°C -- - Calm Calm -- 30.02 in1016.6 mb 0.00 in0.0 mm 0.00 in0.0 mm 0.00 in0.0 mm
07:44 AM 64.4°F18.0°C -- - Calm Calm -- 30.02 in1016.6 mb 0.00 in0.0 mm 0.00 in0.0 mm 0.00 in0.0 mm
07:50 AM 64.6°F18.1°C -- - Calm Calm -- 30.02 in1016.6 mb 0.00 in0.0 mm 0.00 in0.0 mm 0.00 in0.0 mm
07:55 AM 64.8°F18.2°C -- - Calm Calm -- 30.02 in1016.6 mb 0.00 in0.0 mm 0.00 in0.0 mm 0.00 in0.0 mm
08:01 AM 65.0°F18.3°C -- - Calm Calm -- 30.03 in1016.9 mb 0.00 in0.0 mm 0.00 in0.0 mm 0.00 in0.0 mm
08:06 AM 65.0°F18.3°C -- - Calm Calm -- 30.02 in1016.6 mb 0.00 in0.0 mm 0.00 in0.0 mm 0.00 in0.0 mm
08:12 AM 65.2°F18.4°C -- - Calm Calm -- 30.03 in1016.9 mb 0.00 in0.0 mm 0.00 in0.0 mm 0.00 in0.0 mm
08:17 AM 65.3°F18.5°C -- - Calm Calm -- 30.03 in1016.9 mb 0.00 in0.0 mm 0.00 in0.0 mm 0.00 in0.0 mm
08:22 AM 65.5°F18.6°C -- - Calm Calm -- 30.03 in1016.9 mb 0.00 in0.0 mm 0.00 in0.0 mm 0.00 in0.0 mm
08:27 AM 65.7°F18.7°C -- - Calm Calm -- 30.03 in1016.9 mb 0.00 in0.0 mm 0.00 in0.0 mm 0.00 in0.0 mm
08:32 AM 65.9°F18.8°C -- - Calm Calm -- 30.03 in1016.9 mb 0.00 in0.0 mm 0.00 in0.0 mm 0.00 in0.0 mm
08:37 AM 66.1°F18.9°C -- - Calm Calm -- 30.03 in1016.9 mb 0.00 in0.0 mm 0.00 in0.0 mm 0.00 in0.0 mm
08:42 AM 66.2°F19.0°C -- - Calm Calm -- 30.03 in1016.9 mb 0.00 in0.0 mm 0.00 in0.0 mm 0.00 in0.0 mm
08:49 AM 66.4°F19.1°C -- - Calm Calm -- 30.03 in1016.9 mb 0.00 in0.0 mm 0.00 in0.0 mm 0.00 in0.0 mm
08:54 AM 66.4°F19.1°C -- - Calm Calm -- 30.03 in1016.9 mb 0.00 in0.0 mm 0.00 in0.0 mm 0.00 in0.0 mm
08:59 AM 66.6°F19.2°C -- - Calm Calm -- 30.03 in1016.9 mb 0.00 in0.0 mm 0.00 in0.0 mm 0.00 in0.0 mm
09:04 AM 67.0°F19.4°C -- - Calm Calm -- 30.02 in1016.6 mb 0.00 in0.0 mm 0.00 in0.0 mm 0.00 in0.0 mm
09:09 AM 67.3°F19.6°C -- - Calm Calm -- 30.02 in1016.6 mb 0.00 in0.0 mm 0.00 in0.0 mm 0.00 in0.0 mm
09:14 AM 67.7°F19.8°C -- - Calm Calm -- 30.03 in1016.9 mb 0.00 in0.0 mm 0.00 in0.0 mm 0.00 in0.0 mm
09:20 AM 68.0°F20.0°C -- - Calm Calm -- 30.02 in1016.6 mb 0.00 in0.0 mm 0.00 in0.0 mm 0.00 in0.0 mm
09:25 AM 68.6°F20.3°C -- - Calm Calm -- 30.02 in1016.6 mb 0.00 in0.0 mm 0.00 in0.0 mm 0.00 in0.0 mm
09:30 AM 68.8°F20.4°C -- - Calm Calm -- 30.02 in1016.6 mb 0.00 in0.0 mm 0.00 in0.0 mm 0.00 in0.0 mm
09:35 AM 68.9°F20.5°C -- - Calm Calm -- 30.02 in1016.6 mb 0.00 in0.0 mm 0.00 in0.0 mm 0.00 in0.0 mm
09:40 AM 69.5°F20.8°C -- - Calm Calm -- 30.02 in1016.6 mb 0.00 in0.0 mm 0.00 in0.0 mm 0.00 in0.0 mm
09:45 AM 69.7°F20.9°C -- - Calm Calm -- 30.02 in1016.6 mb 0.00 in0.0 mm 0.00 in0.0 mm 0.00 in0.0 mm
09:50 AM 70.0°F21.1°C -- - Calm Calm -- 30.02 in1016.6 mb 0.00 in0.0 mm 0.00 in0.0 mm 0.00 in0.0 mm
09:56 AM 70.2°F21.2°C -- - Calm Calm -- 30.02 in1016.6 mb 0.00 in0.0 mm 0.00 in0.0 mm 0.00 in0.0 mm
10:01 AM 70.4°F21.3°C -- - Calm Calm -- 30.02 in1016.6 mb 0.00 in0.0 mm 0.00 in0.0 mm 0.00 in0.0 mm
10:07 AM 70.7°F21.5°C -- - Calm Calm -- 30.02 in1016.6 mb 0.00 in0.0 mm 0.00 in0.0 mm 0.00 in0.0 mm
10:12 AM 70.9°F21.6°C -- - Calm Calm -- 30.02 in1016.6 mb 0.00 in0.0 mm 0.00 in0.0 mm 0.00 in0.0 mm
10:17 AM 71.3°F21.8°C -- - Calm Calm -- 30.02 in1016.6 mb 0.00 in0.0 mm 0.00 in0.0 mm 0.00 in0.0 mm
10:22 AM 71.5°F21.9°C -- - Calm Calm -- 30.01 in1016.3 mb 0.00 in0.0 mm 0.00 in0.0 mm 0.00 in0.0 mm
10:27 AM 71.5°F21.9°C -- - Calm Calm -- 30.01 in1016.3 mb 0.00 in0.0 mm 0.00 in0.0 mm 0.00 in0.0 mm
10:32 AM 71.6°F22.0°C -- - Calm Calm -- 30.01 in1016.3 mb 0.00 in0.0 mm 0.00 in0.0 mm 0.00 in0.0 mm
10:38 AM 71.6°F22.0°C -- - Calm Calm -- 30.01 in1016.3 mb 0.00 in0.0 mm 0.00 in0.0 mm 0.00 in0.0 mm
10:43 AM 71.8°F22.1°C -- - Calm Calm -- 30.01 in1016.3 mb 0.00 in0.0 mm 0.00 in0.0 mm 0.00 in0.0 mm
10:48 AM 72.0°F22.2°C -- - Calm Calm -- 30.01 in1016.3 mb 0.00 in0.0 mm 0.00 in0.0 mm 0.00 in0.0 mm
10:53 AM 72.2°F22.3°C -- - Calm Calm -- 30.01 in1016.3 mb 0.00 in0.0 mm 0.00 in0.0 mm 0.00 in0.0 mm
10:59 AM 72.4°F22.4°C -- - Calm Calm -- 30.01 in1016.3 mb 0.00 in0.0 mm 0.00 in0.0 mm 0.00 in0.0 mm
11:04 AM 72.4°F22.4°C -- - Calm Calm -- 30.01 in1016.3 mb 0.00 in0.0 mm 0.00 in0.0 mm 0.00 in0.0 mm
11:09 AM 72.7°F22.6°C -- - Calm Calm -- 30.01 in1016.3 mb 0.00 in0.0 mm 0.00 in0.0 mm 0.00 in0.0 mm
11:15 AM 72.9°F22.7°C -- - Calm Calm -- 30.01 in1016.3 mb 0.00 in0.0 mm 0.00 in0.0 mm 0.00 in0.0 mm
11:22 AM 72.9°F22.7°C -- - Calm Calm -- 30.01 in1016.3 mb 0.00 in0.0 mm 0.00 in0.0 mm 0.00 in0.0 mm
11:27 AM 72.7°F22.6°C -- - Calm Calm -- 30.01 in1016.3 mb 0.00 in0.0 mm 0.00 in0.0 mm 0.00 in0.0 mm
11:32 AM 72.9°F22.7°C -- - Calm Calm -- 30.01 in1016.3 mb 0.00 in0.0 mm 0.00 in0.0 mm 0.00 in0.0 mm
11:37 AM 73.1°F22.8°C -- - Calm Calm -- 30.01 in1016.3 mb 0.00 in0.0 mm 0.00 in0.0 mm 0.00 in0.0 mm
11:42 AM 73.1°F22.8°C -- - Calm Calm -- 30.00 in1015.9 mb 0.00 in0.0 mm 0.00 in0.0 mm 0.00 in0.0 mm
11:48 AM 73.1°F22.8°C -- - Calm Calm -- 30.00 in1015.9 mb 0.00 in0.0 mm 0.00 in0.0 mm 0.00 in0.0 mm
11:55 AM 73.4°F23.0°C -- - Calm Calm -- 30.00 in1015.9 mb 0.00 in0.0 mm 0.00 in0.0 mm 0.00 in0.0 mm
12:00 PM 73.4°F23.0°C -- - Calm Calm -- 30.00 in1015.9 mb 0.00 in0.0 mm 0.00 in0.0 mm 0.00 in0.0 mm
12:05 PM 73.6°F23.1°C -- - Calm Calm -- 30.00 in1015.9 mb 0.00 in0.0 mm 0.00 in0.0 mm 0.00 in0.0 mm
12:11 PM 73.4°F23.0°C -- - Calm Calm -- 30.00 in1015.9 mb 0.00 in0.0 mm 0.00 in0.0 mm 0.00 in0.0 mm
12:16 PM 73.4°F23.0°C -- - Calm Calm -- 30.00 in1015.9 mb 0.00 in0.0 mm 0.00 in0.0 mm 0.00 in0.0 mm
12:22 PM 73.8°F23.2°C -- - Calm Calm -- 30.00 in1015.9 mb 0.00 in0.0 mm 0.00 in0.0 mm 0.00 in0.0 mm
12:27 PM 73.8°F23.2°C -- - Calm Calm -- 30.00 in1015.9 mb 0.00 in0.0 mm 0.00 in0.0 mm 0.00 in0.0 mm
12:32 PM 74.0°F23.3°C -- - Calm Calm -- 30.00 in1015.9 mb 0.00 in0.0 mm 0.00 in0.0 mm 0.00 in0.0 mm
12:37 PM 74.2°F23.4°C -- - Calm Calm -- 30.00 in1015.9 mb 0.00 in0.0 mm 0.00 in0.0 mm 0.00 in0.0 mm
12:42 PM 74.2°F23.4°C -- - Calm Calm -- 30.00 in1015.9 mb 0.00 in0.0 mm 0.00 in0.0 mm 0.00 in0.0 mm
12:48 PM 74.2°F23.4°C -- - Calm Calm -- 30.00 in1015.9 mb 0.00 in0.0 mm 0.00 in0.0 mm 0.00 in0.0 mm
12:53 PM 74.2°F23.4°C -- - Calm Calm -- 30.00 in1015.9 mb 0.00 in0.0 mm 0.00 in0.0 mm 0.00 in0.0 mm
12:58 PM 74.2°F23.4°C -- - Calm Calm -- 29.99 in1015.6 mb 0.00 in0.0 mm 0.00 in0.0 mm 0.00 in0.0 mm
01:03 PM 74.2°F23.4°C -- - Calm Calm -- 29.99 in1015.6 mb 0.00 in0.0 mm 0.00 in0.0 mm 0.00 in0.0 mm
01:09 PM 74.3°F23.5°C -- - Calm Calm -- 30.00 in1015.9 mb 0.00 in0.0 mm 0.00 in0.0 mm 0.00 in0.0 mm
01:15 PM 74.3°F23.5°C -- - Calm Calm -- 30.00 in1015.9 mb 0.00 in0.0 mm 0.00 in0.0 mm 0.00 in0.0 mm
01:20 PM 74.3°F23.5°C -- - Calm Calm -- 30.00 in1015.9 mb 0.00 in0.0 mm 0.00 in0.0 mm 0.00 in0.0 mm
01:25 PM 74.2°F23.4°C -- - Calm Calm -- 30.00 in1015.9 mb 0.00 in0.0 mm 0.00 in0.0 mm 0.00 in0.0 mm
01:30 PM 73.8°F23.2°C -- - Calm Calm -- 30.00 in1015.9 mb 0.00 in0.0 mm 0.00 in0.0 mm 0.00 in0.0 mm
01:36 PM 73.8°F23.2°C -- - Calm Calm -- 30.00 in1015.9 mb 0.00 in0.0 mm 0.00 in0.0 mm 0.00 in0.0 mm
01:41 PM 73.4°F23.0°C -- - Calm Calm -- 30.00 in1015.9 mb 0.00 in0.0 mm 0.00 in0.0 mm 0.00 in0.0 mm
01:47 PM 73.4°F23.0°C -- - Calm Calm -- 30.00 in1015.9 mb 0.00 in0.0 mm 0.00 in0.0 mm 0.00 in0.0 mm
01:52 PM 73.4°F23.0°C -- - Calm Calm -- 30.00 in1015.9 mb 0.00 in0.0 mm 0.00 in0.0 mm 0.00 in0.0 mm
01:58 PM 73.4°F23.0°C -- - Calm Calm -- 30.00 in1015.9 mb 0.00 in0.0 mm 0.00 in0.0 mm 0.00 in0.0 mm
02:03 PM 73.6°F23.1°C -- - Calm Calm -- 30.00 in1015.9 mb 0.00 in0.0 mm 0.00 in0.0 mm 0.00 in0.0 mm
02:09 PM 73.4°F23.0°C -- - Calm Calm -- 30.00 in1015.9 mb 0.00 in0.0 mm 0.00 in0.0 mm 0.00 in0.0 mm
02:14 PM 73.4°F23.0°C -- - Calm Calm -- 30.00 in1015.9 mb 0.00 in0.0 mm 0.00 in0.0 mm 0.00 in0.0 mm
02:20 PM 73.3°F22.9°C -- - Calm Calm -- 30.00 in1015.9 mb 0.00 in0.0 mm 0.00 in0.0 mm 0.00 in0.0 mm
02:26 PM 73.4°F23.0°C -- - Calm Calm -- 30.00 in1015.9 mb 0.00 in0.0 mm 0.00 in0.0 mm 0.00 in0.0 mm
02:32 PM 73.6°F23.1°C -- - Calm Calm -- 30.00 in1015.9 mb 0.00 in0.0 mm 0.00 in0.0 mm 0.00 in0.0 mm
02:37 PM 73.8°F23.2°C -- - Calm Calm -- 30.00 in1015.9 mb 0.00 in0.0 mm 0.00 in0.0 mm 0.00 in0.0 mm
02:43 PM 73.8°F23.2°C -- - Calm Calm -- 30.00 in1015.9 mb 0.00 in0.0 mm 0.00 in0.0 mm 0.00 in0.0 mm
02:49 PM 73.8°F23.2°C -- - Calm Calm -- 30.00 in1015.9 mb 0.00 in0.0 mm 0.00 in0.0 mm 0.00 in0.0 mm
02:56 PM 73.4°F23.0°C -- - Calm Calm -- 30.00 in1015.9 mb 0.00 in0.0 mm 0.00 in0.0 mm 0.00 in0.0 mm
03:01 PM 73.4°F23.0°C -- - Calm Calm -- 30.00 in1015.9 mb 0.00 in0.0 mm 0.00 in0.0 mm 0.00 in0.0 mm
03:07 PM 73.4°F23.0°C -- - Calm Calm -- 29.99 in1015.6 mb 0.00 in0.0 mm 0.00 in0.0 mm 0.00 in0.0 mm
03:12 PM 73.4°F23.0°C -- - Calm Calm -- 30.00 in1015.9 mb 0.00 in0.0 mm 0.00 in0.0 mm 0.00 in0.0 mm
03:19 PM 73.3°F22.9°C -- - Calm Calm -- 29.99 in1015.6 mb 0.00 in0.0 mm 0.00 in0.0 mm 0.00 in0.0 mm
03:24 PM 73.1°F22.8°C -- - Calm Calm -- 29.99 in1015.6 mb 0.00 in0.0 mm 0.00 in0.0 mm 0.00 in0.0 mm
03:30 PM 73.1°F22.8°C -- - Calm Calm -- 29.99 in1015.6 mb 0.00 in0.0 mm 0.00 in0.0 mm 0.00 in0.0 mm
03:35 PM 73.1°F22.8°C -- - Calm Calm -- 29.99 in1015.6 mb 0.00 in0.0 mm 0.00 in0.0 mm 0.00 in0.0 mm
03:40 PM 73.1°F22.8°C -- - Calm Calm -- 29.99 in1015.6 mb 0.00 in0.0 mm 0.00 in0.0 mm 0.00 in0.0 mm
03:45 PM 73.1°F22.8°C -- - Calm Calm -- 29.99 in1015.6 mb 0.00 in0.0 mm 0.00 in0.0 mm 0.00 in0.0 mm
03:50 PM 73.1°F22.8°C -- - Calm Calm -- 29.99 in1015.6 mb 0.00 in0.0 mm 0.00 in0.0 mm 0.00 in0.0 mm
03:55 PM 72.9°F22.7°C -- - Calm Calm -- 29.99 in1015.6 mb 0.00 in0.0 mm 0.00 in0.0 mm 0.00 in0.0 mm
04:02 PM 72.9°F22.7°C -- - Calm Calm -- 29.99 in1015.6 mb 0.00 in0.0 mm 0.00 in0.0 mm 0.00 in0.0 mm
04:07 PM 73.1°F22.8°C -- - Calm Calm -- 29.98 in1015.2 mb 0.00 in0.0 mm 0.00 in0.0 mm 0.00 in0.0 mm
04:14 PM 73.1°F22.8°C -- - Calm Calm -- 29.98 in1015.2 mb 0.00 in0.0 mm 0.00 in0.0 mm 0.00 in0.0 mm
04:19 PM 72.9°F22.7°C -- - Calm Calm -- 29.98 in1015.2 mb 0.00 in0.0 mm 0.00 in0.0 mm 0.00 in0.0 mm
04:25 PM 72.9°F22.7°C -- - Calm Calm -- 29.98 in1015.2 mb 0.00 in0.0 mm 0.00 in0.0 mm 0.00 in0.0 mm
04:30 PM 72.7°F22.6°C -- - Calm Calm -- 29.98 in1015.2 mb 0.00 in0.0 mm 0.00 in0.0 mm 0.00 in0.0 mm
04:35 PM 72.2°F22.3°C -- - Calm Calm -- 29.98 in1015.2 mb 0.00 in0.0 mm 0.00 in0.0 mm 0.00 in0.0 mm
04:40 PM 72.0°F22.2°C -- - Calm Calm -- 29.98 in1015.2 mb 0.00 in0.0 mm 0.00 in0.0 mm 0.00 in0.0 mm
04:45 PM 72.0°F22.2°C -- - Calm Calm -- 29.98 in1015.2 mb 0.00 in0.0 mm 0.00 in0.0 mm 0.00 in0.0 mm
04:50 PM 72.0°F22.2°C -- - Calm Calm -- 29.98 in1015.2 mb 0.00 in0.0 mm 0.00 in0.0 mm 0.00 in0.0 mm
04:56 PM 71.8°F22.1°C -- - Calm Calm -- 29.98 in1015.2 mb 0.00 in0.0 mm 0.00 in0.0 mm 0.00 in0.0 mm
05:01 PM 71.8°F22.1°C -- - Calm Calm -- 29.98 in1015.2 mb 0.00 in0.0 mm 0.00 in0.0 mm 0.00 in0.0 mm
05:05 PM 71.8°F22.1°C -- - Calm Calm -- 29.98 in1015.2 mb 0.00 in0.0 mm 0.00 in0.0 mm 0.00 in0.0 mm
05:11 PM 71.8°F22.1°C -- - Calm Calm -- 29.98 in1015.2 mb 0.00 in0.0 mm 0.00 in0.0 mm 0.00 in0.0 mm
05:16 PM 72.0°F22.2°C -- - Calm Calm -- 29.98 in1015.2 mb 0.00 in0.0 mm 0.00 in0.0 mm 0.00 in0.0 mm
05:21 PM 72.0°F22.2°C -- - Calm Calm -- 29.98 in1015.2 mb 0.00 in0.0 mm 0.00 in0.0 mm 0.00 in0.0 mm
05:26 PM 72.2°F22.3°C -- - Calm Calm -- 29.98 in1015.2 mb 0.00 in0.0 mm 0.00 in0.0 mm 0.00 in0.0 mm
05:31 PM 72.2°F22.3°C -- - Calm Calm -- 29.98 in1015.2 mb 0.00 in0.0 mm 0.00 in0.0 mm 0.00 in0.0 mm
05:36 PM 71.8°F22.1°C -- - Calm Calm -- 29.98 in1015.2 mb 0.00 in0.0 mm 0.00 in0.0 mm 0.00 in0.0 mm
05:41 PM 71.8°F22.1°C -- - Calm Calm -- 29.98 in1015.2 mb 0.00 in0.0 mm 0.00 in0.0 mm 0.00 in0.0 mm
05:46 PM 71.8°F22.1°C -- - Calm Calm -- 29.98 in1015.2 mb 0.00 in0.0 mm 0.00 in0.0 mm 0.00 in0.0 mm
05:51 PM 71.6°F22.0°C -- - Calm Calm -- 29.98 in1015.2 mb 0.00 in0.0 mm 0.00 in0.0 mm 0.00 in0.0 mm
05:56 PM 71.3°F21.8°C -- - Calm Calm -- 29.98 in1015.2 mb 0.00 in0.0 mm 0.00 in0.0 mm 0.00 in0.0 mm
06:01 PM 71.3°F21.8°C -- - Calm Calm -- 29.98 in1015.2 mb 0.00 in0.0 mm 0.00 in0.0 mm 0.00 in0.0 mm
06:06 PM 70.9°F21.6°C -- - Calm Calm -- 29.98 in1015.2 mb 0.00 in0.0 mm 0.00 in0.0 mm 0.00 in0.0 mm
06:11 PM 70.4°F21.3°C -- - Calm Calm -- 29.99 in1015.6 mb 0.00 in0.0 mm 0.00 in0.0 mm 0.00 in0.0 mm
06:16 PM 70.2°F21.2°C -- - Calm Calm -- 29.99 in1015.6 mb 0.00 in0.0 mm 0.00 in0.0 mm 0.00 in0.0 mm
06:21 PM 70.0°F21.1°C -- - Calm Calm -- 29.98 in1015.2 mb 0.00 in0.0 mm 0.00 in0.0 mm 0.00 in0.0 mm
06:26 PM 69.5°F20.8°C -- - Calm Calm -- 29.99 in1015.6 mb 0.00 in0.0 mm 0.00 in0.0 mm 0.00 in0.0 mm
06:32 PM 69.1°F20.6°C -- - Calm Calm -- 29.99 in1015.6 mb 0.00 in0.0 mm 0.00 in0.0 mm 0.00 in0.0 mm
06:36 PM 68.8°F20.4°C -- - Calm Calm -- 29.99 in1015.6 mb 0.00 in0.0 mm 0.00 in0.0 mm 0.00 in0.0 mm
06:42 PM 68.4°F20.2°C -- - Calm Calm -- 29.99 in1015.6 mb 0.00 in0.0 mm 0.00 in0.0 mm 0.00 in0.0 mm
06:47 PM 68.2°F20.1°C -- - Calm Calm -- 29.99 in1015.6 mb 0.00 in0.0 mm 0.00 in0.0 mm 0.00 in0.0 mm
06:52 PM 68.0°F20.0°C -- - Calm Calm -- 29.99 in1015.6 mb 0.00 in0.0 mm 0.00 in0.0 mm 0.00 in0.0 mm
06:57 PM 67.5°F19.7°C -- - Calm Calm -- 29.99 in1015.6 mb 0.00 in0.0 mm 0.00 in0.0 mm 0.00 in0.0 mm
07:03 PM 67.3°F19.6°C -- - Calm Calm -- 29.99 in1015.6 mb 0.00 in0.0 mm 0.00 in0.0 mm 0.00 in0.0 mm
07:09 PM 67.0°F19.4°C -- - Calm Calm -- 29.99 in1015.6 mb 0.00 in0.0 mm 0.00 in0.0 mm 0.00 in0.0 mm
07:14 PM 67.0°F19.4°C -- - Calm Calm -- 30.00 in1015.9 mb 0.00 in0.0 mm 0.00 in0.0 mm 0.00 in0.0 mm
07:20 PM 66.6°F19.2°C -- - Calm Calm -- 30.00 in1015.9 mb 0.00 in0.0 mm 0.00 in0.0 mm 0.00 in0.0 mm
07:25 PM 66.6°F19.2°C -- - Calm Calm -- 30.00 in1015.9 mb 0.00 in0.0 mm 0.00 in0.0 mm 0.00 in0.0 mm
07:30 PM 66.6°F19.2°C -- - Calm Calm -- 30.00 in1015.9 mb 0.00 in0.0 mm 0.00 in0.0 mm 0.00 in0.0 mm
07:36 PM 66.4°F19.1°C -- - Calm Calm -- 30.00 in1015.9 mb 0.00 in0.0 mm 0.00 in0.0 mm 0.00 in0.0 mm
07:41 PM 66.2°F19.0°C -- - Calm Calm -- 30.00 in1015.9 mb 0.00 in0.0 mm 0.00 in0.0 mm 0.00 in0.0 mm
07:46 PM 66.1°F18.9°C -- - Calm Calm -- 30.00 in1015.9 mb 0.00 in0.0 mm 0.00 in0.0 mm 0.00 in0.0 mm
07:51 PM 66.1°F18.9°C -- - Calm Calm -- 30.00 in1015.9 mb 0.00 in0.0 mm 0.00 in0.0 mm 0.00 in0.0 mm
07:57 PM 66.1°F18.9°C -- - Calm Calm -- 30.00 in1015.9 mb 0.00 in0.0 mm 0.00 in0.0 mm 0.00 in0.0 mm
08:02 PM 65.9°F18.8°C -- - Calm Calm -- 30.01 in1016.3 mb 0.00 in0.0 mm 0.00 in0.0 mm 0.00 in0.0 mm
08:08 PM 65.9°F18.8°C -- - Calm Calm -- 30.01 in1016.3 mb 0.00 in0.0 mm 0.00 in0.0 mm 0.00 in0.0 mm
08:13 PM 65.9°F18.8°C -- - Calm Calm -- 30.01 in1016.3 mb 0.00 in0.0 mm 0.00 in0.0 mm 0.00 in0.0 mm
08:18 PM 65.9°F18.8°C -- - Calm Calm -- 30.01 in1016.3 mb 0.00 in0.0 mm 0.00 in0.0 mm 0.00 in0.0 mm
08:24 PM 65.9°F18.8°C -- - Calm Calm -- 30.01 in1016.3 mb 0.00 in0.0 mm 0.00 in0.0 mm 0.00 in0.0 mm
08:29 PM 65.9°F18.8°C -- - Calm Calm -- 30.01 in1016.3 mb 0.00 in0.0 mm 0.00 in0.0 mm 0.00 in0.0 mm
08:35 PM 65.9°F18.8°C -- - Calm Calm -- 30.01 in1016.3 mb 0.00 in0.0 mm 0.00 in0.0 mm 0.00 in0.0 mm
08:40 PM 65.9°F18.8°C -- - Calm Calm -- 30.01 in1016.3 mb 0.00 in0.0 mm 0.00 in0.0 mm 0.00 in0.0 mm
08:45 PM 65.9°F18.8°C -- - Calm Calm -- 30.01 in1016.3 mb 0.00 in0.0 mm 0.00 in0.0 mm 0.00 in0.0 mm
08:50 PM 65.9°F18.8°C -- - Calm Calm -- 30.02 in1016.6 mb 0.00 in0.0 mm 0.00 in0.0 mm 0.00 in0.0 mm
08:56 PM 65.9°F18.8°C -- - Calm Calm -- 30.02 in1016.6 mb 0.00 in0.0 mm 0.00 in0.0 mm 0.00 in0.0 mm
09:01 PM 65.7°F18.7°C -- - Calm Calm -- 30.02 in1016.6 mb 0.00 in0.0 mm 0.00 in0.0 mm 0.00 in0.0 mm
09:06 PM 65.7°F18.7°C -- - Calm Calm -- 30.02 in1016.6 mb 0.00 in0.0 mm 0.00 in0.0 mm 0.00 in0.0 mm
09:11 PM 65.5°F18.6°C -- - Calm Calm -- 30.01 in1016.3 mb 0.00 in0.0 mm 0.00 in0.0 mm 0.00 in0.0 mm
09:16 PM 65.5°F18.6°C -- - Calm Calm -- 30.01 in1016.3 mb 0.00 in0.0 mm 0.00 in0.0 mm 0.00 in0.0 mm
09:21 PM 65.5°F18.6°C -- - Calm Calm -- 30.02 in1016.6 mb 0.00 in0.0 mm 0.00 in0.0 mm 0.00 in0.0 mm
09:27 PM 65.5°F18.6°C -- - Calm Calm -- 30.01 in1016.3 mb 0.00 in0.0 mm 0.00 in0.0 mm 0.00 in0.0 mm
09:32 PM 65.3°F18.5°C -- - Calm Calm -- 30.01 in1016.3 mb 0.00 in0.0 mm 0.00 in0.0 mm 0.00 in0.0 mm
09:38 PM 65.3°F18.5°C -- - Calm Calm -- 30.01 in1016.3 mb 0.00 in0.0 mm 0.00 in0.0 mm 0.00 in0.0 mm
09:43 PM 65.3°F18.5°C -- - Calm Calm -- 30.01 in1016.3 mb 0.00 in0.0 mm 0.00 in0.0 mm 0.00 in0.0 mm
09:49 PM 65.3°F18.5°C -- - Calm Calm -- 30.01 in1016.3 mb 0.00 in0.0 mm 0.00 in0.0 mm 0.00 in0.0 mm
09:54 PM 65.3°F18.5°C -- - Calm Calm -- 30.01 in1016.3 mb 0.00 in0.0 mm 0.00 in0.0 mm 0.00 in0.0 mm
09:59 PM 65.2°F18.4°C -- - Calm Calm -- 30.01 in1016.3 mb 0.00 in0.0 mm 0.00 in0.0 mm 0.00 in0.0 mm
10:04 PM 65.2°F18.4°C -- - Calm Calm -- 30.01 in1016.3 mb 0.00 in0.0 mm 0.00 in0.0 mm 0.00 in0.0 mm
10:09 PM 65.2°F18.4°C -- - Calm Calm -- 30.01 in1016.3 mb 0.00 in0.0 mm 0.00 in0.0 mm 0.00 in0.0 mm
10:14 PM 65.2°F18.4°C -- - Calm Calm -- 30.01 in1016.3 mb 0.00 in0.0 mm 0.00 in0.0 mm 0.00 in0.0 mm
10:19 PM 65.2°F18.4°C -- - Calm Calm -- 30.02 in1016.6 mb 0.00 in0.0 mm 0.00 in0.0 mm 0.00 in0.0 mm
10:24 PM 65.2°F18.4°C -- - Calm Calm -- 30.01 in1016.3 mb 0.00 in0.0 mm 0.00 in0.0 mm 0.00 in0.0 mm
10:30 PM 65.2°F18.4°C -- - Calm Calm -- 30.02 in1016.6 mb 0.00 in0.0 mm 0.00 in0.0 mm 0.00 in0.0 mm
10:35 PM 65.2°F18.4°C -- - Calm Calm -- 30.02 in1016.6 mb 0.00 in0.0 mm 0.00 in0.0 mm 0.00 in0.0 mm
10:40 PM 65.0°F18.3°C -- - Calm Calm -- 30.02 in1016.6 mb 0.00 in0.0 mm 0.00 in0.0 mm 0.00 in0.0 mm
10:46 PM 65.0°F18.3°C -- - Calm Calm -- 30.02 in1016.6 mb 0.00 in0.0 mm 0.00 in0.0 mm 0.00 in0.0 mm
10:51 PM 65.0°F18.3°C -- - Calm Calm -- 30.01 in1016.3 mb 0.00 in0.0 mm 0.00 in0.0 mm 0.00 in0.0 mm
10:56 PM 64.8°F18.2°C -- - Calm Calm -- 30.01 in1016.3 mb 0.00 in0.0 mm 0.00 in0.0 mm 0.00 in0.0 mm
11:02 PM 64.8°F18.2°C -- - Calm Calm -- 30.01 in1016.3 mb 0.00 in0.0 mm 0.00 in0.0 mm 0.00 in0.0 mm
11:09 PM 64.8°F18.2°C -- - Calm Calm -- 30.01 in1016.3 mb 0.00 in0.0 mm 0.00 in0.0 mm 0.00 in0.0 mm
11:14 PM 64.8°F18.2°C -- - Calm Calm -- 30.01 in1016.3 mb 0.00 in0.0 mm 0.00 in0.0 mm 0.00 in0.0 mm
11:19 PM 64.8°F18.2°C -- - Calm Calm -- 30.01 in1016.3 mb 0.00 in0.0 mm 0.00 in0.0 mm 0.00 in0.0 mm
11:24 PM 64.8°F18.2°C -- - Calm Calm -- 30.01 in1016.3 mb 0.00 in0.0 mm 0.00 in0.0 mm 0.00 in0.0 mm
11:29 PM 64.8°F18.2°C -- - Calm Calm -- 30.01 in1016.3 mb 0.00 in0.0 mm 0.00 in0.0 mm 0.00 in0.0 mm
11:35 PM 64.6°F18.1°C -- - Calm Calm -- 30.01 in1016.3 mb 0.00 in0.0 mm 0.00 in0.0 mm 0.00 in0.0 mm
11:40 PM 64.6°F18.1°C -- - Calm Calm -- 30.01 in1016.3 mb 0.00 in0.0 mm 0.00 in0.0 mm 0.00 in0.0 mm
11:46 PM 64.6°F18.1°C -- - Calm Calm -- 30.01 in1016.3 mb 0.00 in0.0 mm 0.00 in0.0 mm 0.00 in0.0 mm
11:52 PM 64.4°F18.0°C -- - Calm Calm -- 30.01 in1016.3 mb 0.00 in0.0 mm 0.00 in0.0 mm 0.00 in0.0 mm
11:57 PM 64.4°F18.0°C -- - Calm Calm -- 30.01 in1016.3 mb 0.00 in0.0 mm 0.00 in0.0 mm 0.00 in0.0 mm